Simultaneous Nadir Overpasses (SNOs) Predictions

Prediction of SNOs between METOP-B and NOAA-19 Satellite Orbit:

Table of predicted SNOs for the next 14.0 days since TLE Epoch: 12/14/2013
Index Date (METOP-B) Time (METOP-B) Lat,Lon (METOP-B) SZA (METOP-B ) Date (NOAA-19) Time (NOAA-19) Lat,Lon (NOAA-19) SZA (NOAA-19 ) Distance(km) Time Diff (sec)
1 12/22/2013 13:01:34 -73.93, 159.52 82.68 12/22/2013 13:00:23 -73.93, 158.11 82.63 43.34 71
2 12/22/2013 13:52:19 73.64, -33.85 97.05 12/22/2013 13:51:19 73.60, -33.84 97.02 3.82 60
3 12/22/2013 14:43:02 -73.62, 133.43 82.98 12/22/2013 14:42:20 -73.59, 133.44 83.00 3.44 42
4 12/22/2013 15:33:42 73.57, -59.35 96.98 12/22/2013 15:33:23 73.60, -59.34 97.01 3.22 19
5 12/22/2013 16:24:24 -73.60, 108.04 82.99 12/22/2013 16:24:24 -73.58, 107.94 83.01 3.69 0
6
